Regional Weather Roundup
Issued by NWS Northern Indiana

Home | Current Version | Previous Version | Graphics & Text | Print | Product List | Glossary On
Versions: 1 2 3 4 5 6 7 8 9 10 11 12 13 14 15 16 17 18 19 20 21 22 23 24 25 26 27 28 29 30 31 32 33 34 35 36 37 38 39 40 41 42 43 44 45 46 47 48 49 50
000
ASUS43 KIWX 191500
RWRIWX

KIWX WEATHER ROUNDUP
NATIONAL WEATHER SERVICE NORTHERN INDIANA
1100 AM EDT FRI SEP 19 2014

NOTE: "FAIR" INDICATES FEW OR NO CLOUDS BELOW 12,000 FEET WITH NO
SIGNIFICANT WEATHER AND/OR OBSTRUCTIONS TO VISIBILITY.

* THESE STATIONS ARE NOT UNDER NWS QUALITY CONTROL. THEY ALSO MAY NOT
  REPORT WEATHER SUCH AS PRECIPITATION OR FOG.

INZ001>027-191600-
NORTHERN INDIANA

CITY           SKY/WX    TMP DP  RH WIND       PRES   REMARKS
GARY*          MOSUNNY   64  52  63 SE10      30.18S
VALPARAISO     SUNNY     62  52  69 S7        30.21R
KNOX*          SUNNY     62  52  69 SE8       30.20R
SOUTH BEND     SUNNY     62  53  72 S9        30.22S
ELKHART*       SUNNY     61  52  72 SE9       30.22S
GOSHEN         SUNNY     62  53  72 SE12      30.22S
WARSAW*        SUNNY     61  52  72 SE9       30.23S
ANGOLA*        SUNNY     61  52  72 SE12      30.24F
FORT WAYNE     MOSUNNY   59  52  77 E9        30.25R

$$
INZ028>050-191600-
CENTRAL INDIANA

CITY           SKY/WX    TMP DP  RH WIND       PRES   REMARKS
LAFAYETTE        N/A     63  53  70 SE9       30.18F
KOKOMO*        SUNNY     63  52  67 E7        30.22R
MUNCIE*        SUNNY     63  52  67 E7        30.21R
INDIANAPOLIS   MOSUNNY   65  50  58 E10       30.18S

$$
MIZ043>046-050>051-056>058-064>065-071>073-077>080-191600-
SOUTHWEST LOWER MICHIGAN

CITY           SKY/WX    TMP DP  RH WIND       PRES   REMARKS
BATTLE CREEK   SUNNY     59  51  75 S8        30.24S
BENTON HARBOR  SUNNY     60  53  77 SE12      30.19F
COLDWATER*     SUNNY     60  53  77 SE10      30.23F
HILLSDALE*     SUNNY     60  52  75 SE5       30.24F
HOLLAND        SUNNY     60  54  80 SE14      30.20F
GRAND RAPIDS   MOSUNNY   60  53  77 S15       30.22F
KALAMAZOO      SUNNY     59  51  75 S8        30.23F
STURGIS*       SUNNY     61  54  77 SE7       30.22F
THREE RIVERS*  FAIR      62  55  79 SE8       30.23F

$$
OHZ001>008-015>018-024>025-191600-
NORTHWEST OHIO

CITY           SKY/WX    TMP DP  RH WIND       PRES   REMARKS
DEFIANCE       SUNNY     60  52  74 SE7       30.25S
FINDLAY        SUNNY     62  51  67 SE6       30.24R
TOLEDO EXPRESS SUNNY     61  51  70 E6        30.25S
TOLEDO METCALF SUNNY     62  50  64 SE5       30.26S
LIMA           SUNNY     63  51  65 E9        30.24R

$$
&&


USA.gov is the U.S. government's official web portal to all federal, state and local government web resources and services.